This is the latest recevied weather packets stored in our database for station/object N4CRH-13. If no packets are shown the sender has not sent any weather packets the latest 10 day(s).
| Time | Temp. | Humidity | Pressure | Rain* | Wind** | Luminosity | Snow |
|---|---|---|---|---|---|---|---|
| 1777907564 | 15.56° C | 28% | 1289.7 hPa | 0 mm | - | 363 W/m² | - |
| 1777907260 | 15° C | 29% | 1289.6 hPa | 0 mm | - | 360 W/m² | - |
| 1777906957 | 15° C | 30% | 1289.8 hPa | 0 mm | - | 333 W/m² | - |
| 1777906654 | 14.44° C | 32% | 1289.7 hPa | 0 mm | - | 333 W/m² | - |
| 1777906351 | 14.44° C | 33% | 1290 hPa | 0 mm | - | 287 W/m² | - |
| 1777906047 | 14.44° C | 31% | 1290 hPa | 0 mm | - | 242 W/m² | - |
| 1777905441 | 14.44° C | 32% | 1289.7 hPa | 0 mm | - | 331 W/m² | - |
| 1777905139 | 14.44° C | 30% | 1289.6 hPa | 0 mm | - | 293 W/m² | - |
| 1777904835 | 13.89° C | 32% | 1290 hPa | 0 mm | - | 218 W/m² | - |
| 1777904533 | 14.44° C | 31% | 1289.7 hPa | 0 mm | - | 135 W/m² | - |
| 1777904229 | 14.44° C | 32% | 1289.6 hPa | 0 mm | - | 180 W/m² | - |
| 1777903926 | 14.44° C | 32% | 1289.6 hPa | 0 mm | - | 162 W/m² | - |
| 1777903623 | 13.89° C | 30% | 1289.6 hPa | 0 mm | - | 186 W/m² | - |
| 1777903016 | 13.33° C | 32% | 1289.7 hPa | 0 mm | - | 131 W/m² | - |
| 1777902712 | 13.33° C | 32% | 1289.7 hPa | 0 mm | - | 122 W/m² | - |
| 1777901804 | 13.89° C | 33% | 1289.4 hPa | 0 mm | - | 120 W/m² | - |
| 1777901199 | 13.89° C | 31% | 1289.5 hPa | 0 mm | - | 119 W/m² | - |
| 1777900896 | 13.89° C | 32% | 1289.4 hPa | 0 mm | - | 118 W/m² | - |
| 1777900593 | 13.33° C | 31% | 1289.5 hPa | 0 mm | - | 102 W/m² | - |
| 1777900290 | 13.89° C | 31% | 1289.7 hPa | 0 mm | - | 96 W/m² | - |
| 1777899987 | 13.89° C | 32% | 1289.5 hPa | 0 mm | - | 101 W/m² | - |
| 1777899684 | 13.33° C | 31% | 1289.5 hPa | 0 mm | - | 82 W/m² | - |
| 1777898171 | 11.67° C | 33% | 1289.6 hPa | 0 mm | - | 28 W/m² | - |
| 1777897868 | 10.56° C | 35% | 1289.6 hPa | 0 mm | - | 22 W/m² | - |
| 1777897564 | 9.44° C | 38% | 1289.5 hPa | 0 mm | - | 17 W/m² | - |
* Rain latest hour (hover to see other rain measurements)
** Current wind speed in m/s (hover to see current wind gust speed)